Regional Weather Roundup
Issued by NWS

Home | Current Version | Previous Version | Text Only | Print | Product List | Glossary Off
Versions: 1 2 3 4 5 6 7 8 9 10 11 12 13 14 15 16 17 18 19 20 21 22 23 24 25 26 27 28 29 30 31 32 33 34 35 36 37 38 39 40 41 42 43 44 45 46 47 48 49 50

000
ASUS45 KBOU 291707
RWRCO

WEATHER ROUNDUP FOR COLORADO
NATIONAL WEATHER SERVICE DENVER/BOULDER CO
1100 AM MDT SAT AUG 29 2015

NOTE: "FAIR" INDICATES FEW OR NO CLOUDS BELOW 12000 FEET WITH NO
SIGNIFICANT WEATHER AND/OR OBSTRUCTIONS TO VISIBILITY.

COZ001>005-013-030-031-291800-
...NORTHWEST COLORADO...

CITY           SKY/WX    TMP DP  RH WIND       PRES   REMARKS
CRAIG          SUNNY     77  42  28 NE8       30.32S
HAYDEN         NOT AVBL
MEEKER         SUNNY     73  43  33 CALM      30.33S
MOUNT WERNER   NOT AVBL
STEAMBOAT SPGS SUNNY     68  45  43 CALM      30.37S
WALDEN         SUNNY     64  39  39 CALM      30.46S
$$

COZ006>008-011-291800-
...WEST CENTRAL VALLEYS...

CITY           SKY/WX    TMP DP  RH WIND       PRES   REMARKS
GRAND JUNCTION SUNNY     76  45  33 SE9       30.23F
MONTROSE       SUNNY     77  47  34 VRB5      30.32S
EAGLE          SUNNY     64  43  45 CALM      30.41F
RIFLE          SUNNY     73  46  38 VRB5      30.29F
DELTA          RAIN      76  45  32 E3        30.28F
NUCLA          NOT AVBL
$$

COZ017>023-064>068-291800-
...SOUTHWEST COLORADO...

CITY           SKY/WX    TMP DP  RH WIND       PRES   REMARKS
DURANGO        SUNNY     75  45  34 VRB6      30.40S
CORTEZ         SUNNY     80  45  28 SE8       30.31S
PAGOSA SPRINGS SUNNY     71  39  31 SW6       30.48S
TELLURIDE      SUNNY     68  40  35 SE6       30.56F
WOLF CREEK PAS MOSUNNY   46  39  76 SW16      30.79R
$$

COZ009-010-012-014-032>034-037-058>063-291800-
...CENTRAL COLORADO...

CITY           SKY/WX    TMP DP  RH WIND       PRES   REMARKS
ASPEN          SUNNY     69  45  41 N6        30.43F
BUENA VISTA    SUNNY     67  40  36 SE6       30.48S
COPPER MTN     MOSUNNY   55  32  41 W12       30.75R
BERTHOUD PASS  FAIR      50  36  57 NW12      30.79S
COTTONWOOD PAS SUNNY     66  37  34 SE3       30.60S
GUNNISON       SUNNY     66  43  42 CALM      30.48F
KREMMLING      SUNNY     61  41  48 E3        30.46F
LEADVILLE      SUNNY     60  37  42 S5        30.58F
MONARCH PASS   SUNNY     54  39  58 SW12      30.86R
SALIDA         SUNNY     70  43  37 CALM      30.52F
SUNLIGHT       MOSUNNY   63  45  51 CALM      30.68R
WILKERSON PASS SUNNY     59  37  44 SW6       30.74R
$$

COZ069>075-291800-
...SAN LUIS VALLEY/SANGRE DE CRISTO MOUNTAINS...

CITY           SKY/WX    TMP DP  RH WIND       PRES   REMARKS
ALAMOSA        SUNNY     70  42  36 E3        30.46F
LA VETA PASS   SUNNY     59  37  44 CALM      30.65R
SAGUACHE       SUNNY     70  43  37 SE9       30.50R
$$

COZ035-036-038>040-291800-
...NORTHERN COLORADO FRONT RANGE...

CITY           SKY/WX    TMP DP  RH WIND       PRES   REMARKS
DENVER INTL AP SUNNY     83  43  24 SW13      30.27F
DMNS CITY PARK   N/A     81  45  27 SE3G9     30.26F
AURORA         MOSUNNY   81  45  27 S10       30.29F
FRONT RANGE AP SUNNY     81  37  21 S6        30.29S
ERIE MUNI ARPT SUNNY     79  42  27 CALM      30.25F
BOULDER MUN AP SUNNY     77  43  29 CALM      30.26F
CENTENNIAL     MOSUNNY   81  44  27 S8        30.30S
BROOMFIELD     SUNNY     77  45  31 VRB5      30.29S
FORT COLLINS   SUNNY     75  48  38 SE5       30.26F
LONGMONT       SUNNY     80  47  31 E3        30.26F
$$

COZ041-046-047-076>085-087-088-291800-
...PIKES PEAK/PALMER DIVIDE AND SOUTHERN FOOTHILLS...

CITY           SKY/WX    TMP DP  RH WIND       PRES   REMARKS
COLO. SPRINGS  MOSUNNY   76  43  30 S7        30.37S
A. F. ACADEMY  SUNNY     74  43  32 S9        30.37F
ELLICOTT       SUNNY    N/A N/A N/A SW8       30.35F
FALCON         SUNNY     74  43  33 MISG      30.42S
FORT CARSON    SUNNY     76  46  34 SE9       30.33F
LIMON          SUNNY     78  49  35 S10       30.31S
MONUMENT HILL  SUNNY     73  37  27 S10       30.40F
TRINIDAD       SUNNY     78  46  32 VRB5      30.35S
$$

COZ042>045-048>051-090-091-291800-
...NORTHEAST COLORADO...

CITY           SKY/WX    TMP DP  RH WIND       PRES   REMARKS
GREELEY ARPT   SUNNY     73  52  46 CALM      30.25F
AKRON          SUNNY     81  44  27 VRB3      30.25S
BURLINGTON     SUNNY     82  52  35 VRB3      30.25S
WRAY           SUNNY     86  49  27 SE5       30.20F
STERLING       SUNNY     73  52  46 S8        30.20F
HOLYOKE        SUNNY     84  54  34 S5        30.20S
FORT MORGAN    SUNNY     76  46  34 CALM      30.25S
$$

COZ086-089-092>099-291800-
...SOUTHEAST COLORADO...

CITY           SKY/WX    TMP DP  RH WIND       PRES   REMARKS
PUEBLO         SUNNY     78  46  32 SE3       30.27F
LA JUNTA       SUNNY     79  51  37 CALM      30.25F
LAMAR          SUNNY     79  60  52 CALM      30.22S
SPRINGFIELD    NOT AVBL
$$



USA.gov is the U.S. government's official web portal to all federal, state and local government web resources and services.